Location: Leiter
(44.7178°N, 106.2687°W)
Time: 10:07:22
(UTC+00:00)

STARS - Pass Details

Date: 09 July 2022
Orbit: 620 x 637 km, 98.2° (Epoch: 14 August)

Event Time Altitude Azimuth Distance (km) Brightness Sun altitude
Rises 07:27:42 0° 353° (N) 2,925 ? -22.8°
Reaches altitude 10° 07:31:27 10° 319° (NW) 2,007 ? -22.8°
Maximum altitude 07:32:47 11° 302° (WNW) 1,918 ? -22.7°
Drops below altitude 10° 07:34:06 10° 284° (WNW) 2,000 ? -22.7°
Enters shadow 07:35:29 - 268° (W) 2,245 ? -22.7°
